Content
SEND FEEDBACK

Daily
Averages
Monthly
Summary
United States of America

PARKERSBURG, WEST VIRGINIA


Home > North America > United States > West Virginia
Elevation: 659 feet     Latitude: 39 16N     Longitude: 081 34W

WEATHER
 
SELECT A DAY
Number of Records: 210,820;   Date Range: 1/1/95 - 11/26/14
 
SHARE

PRINT THIS DATA

[ ← Previous Day ]
WEATHER ALMANAC - AUGUST 15, 2014
[ Next Day → ]
[ °C ]   °F
Weather ElementAverageHighLow
Temperature58.8 °F77 °F (10:53 am)50 °F (4:53 am)
Dewpoint50.5 °F55 °F (1:53 pm)46 °F (12:53 pm)
Humidity79.5 %100 % (12:55 am)34 % (4:53 pm)
Barometer30.06 in30.09 in (6:53 am)30.02 in (12:53 am)
Wind Speed1.5 mph9.2 mph (1:53 pm)
Wind Gust17.3 mph (12:53 pm)
Weather ElementAverage
Visibility6 mi
Wind DirectionENE (58.4 °)

Weather ElementTotal
Precipitation---
Heating Degree Days1.5 (Base 65)
Growing Degree Days13.5 (Base 50)
Averaged from 37 records on August 15, 2014
WEATHER CONDITIONS BREAKOUT
WIND DIRECTION BREAKOUT
WEATHER BY HOUR - AUGUST 15, 2014
[ °C ]   °F
Local TimeTemperatureDewpointHumidityBarometerVisibilityWind DirectionWind SpeedGust SpeedPrecipitationEventsConditions
12:53 AM55.0 °F53.1 °F93 %30.05 in10.0 miCalmClear
1:53 AM54.0 °F52.0 °F93 %30.04 in10.0 miCalmClear
2:53 AM52.0 °F51.1 °F97 %30.04 in9.0 miCalmClear
3:11 AM52.0 °F50.0 °F93 %30.05 in10.0 miCalmScattered Clouds
3:20 AM53.1 °F50.0 °F89 %30.05 in5.0 miCalmMostly Cloudy
3:22 AM53.1 °F51.1 °F93 %30.05 in1.5 miCalmMostly Cloudy
3:53 AM51.1 °F50.0 °F96 %30.04 in3.0 miCalmMostly Cloudy
3:59 AM51.1 °F50.0 °F96 %30.05 in1.8 miCalmMostly Cloudy
4:08 AM51.1 °F50.0 °F96 %30.05 in0.5 miCalmFogFog
4:45 AM51.1 °F50.0 °F96 %30.06 in1.0 miCalmMist
4:53 AM50.0 °F50.0 °F100 %30.05 in0.8 miCalmMist
5:03 AM50.0 °F50.0 °F100 %30.06 in1.8 miCalmMostly Cloudy
5:08 AM50.0 °F48.9 °F96 %30.06 in3.0 miCalmMostly Cloudy
5:53 AM50.0 °F48.9 °F96 %30.06 in1.2 miCalmMostly Cloudy
6:00 AM50.0 °F48.9 °F96 %30.07 in0.2 miCalmFogFog
6:53 AM51.1 °F51.1 °F100 %30.07 in0.2 miCalmFogFog
7:11 AM50.0 °F50.0 °F100 %30.08 in0.2 miCalmFogFog
7:53 AM51.1 °F51.1 °F100 %30.08 in0.2 miCalmFogFog
7:59 AM51.1 °F51.1 °F100 %30.09 in0.2 miCalmFogFog
8:53 AM55.0 °F54.0 °F96 %30.09 in0.2 miCalmFogFog
8:56 AM55.0 °F55.0 °F100 %30.09 in3.0 miCalmMostly Cloudy
8:59 AM55.0 °F55.0 °F100 %30.09 in8.0 miCalmClear
9:53 AM63.0 °F55.0 °F75 %30.09 in10.0 miCalmClear
10:53 AM69.1 °F48.9 °F49 %30.09 in10.0 miVariable3.5 mphPartly Cloudy
11:53 AM71.1 °F46.9 °F42 %30.09 in10.0 miNW (310°)9.2 mphClear
12:53 PM72.0 °F46.0 °F40 %30.08 in10.0 miNW (320°)6.9 mphClear
1:53 PM73.9 °F46.9 °F38 %30.06 in10.0 miWNW (290°)9.2 mphClear
2:53 PM75.0 °F48.0 °F38 %30.05 in10.0 miVariable3.5 mph17.3 mphClear
3:53 PM75.9 °F46.9 °F36 %30.04 in10.0 miNW (320°)6.9 mphClear
4:53 PM77.0 °F46.9 °F34 %30.04 in10.0 miNW (320°)5.8 mphClear
5:53 PM75.9 °F46.0 °F35 %30.03 in10.0 miWNW (300°)4.6 mphClear
6:53 PM73.9 °F46.9 °F38 %30.03 in10.0 miWNW (300°)5.8 mphClear
7:53 PM71.1 °F50.0 °F47 %30.02 in10.0 miCalmClear
8:53 PM63.0 °F55.0 °F75 %30.03 in10.0 miCalmClear
9:53 PM59.0 °F55.0 °F87 %30.04 in10.0 miCalmClear
10:53 PM57.0 °F54.0 °F89 %30.05 in10.0 miCalmClear
11:53 PM55.0 °F53.1 °F93 %30.06 in10.0 miCalmClear
Hourly data recorded from KPKB, located miles away from Parkersburg, West Virginia







STORIES FROM OUR PARTNERS